Grand Forks AFB, ND

1:53 PM CDT on July 27, 2017 (GMT -0500)
Grand Forks Air Force Base

Weather History for KRDR - October, 2013

Change the Weather History Date:

Monday, October 21, 2013

  Actual Average Record
Temperature  
Mean Temperature 32 °F -  
Max Temperature 37 °F 48 °F 66 °F (2014)
Min Temperature 26 °F 30 °F 19 °F (2002)
Degree Days  
Heating Degree Days 34    
Moisture  
Dew Point 22 °F    
Average Humidity 67    
Maximum Humidity 81    
Minimum Humidity 60    
Precipitation  
Precipitation 0.00 in - - ()
Sea Level Pressure  
Sea Level Pressure 30.01 in    
Wind  
Wind Speed 10 mph (NNW)    
Max Wind Speed 15 mph    
Max Gust Speed 23 mph    
Visibility 10 miles    
Events      
Averages and records for this station are not official NWS values.
T = Trace of Precipitation, MM = Missing Value Source: NWS Daily Summary

Daily Weather History Graph

Daily Weather History Graph

Search for Another Location

Airport or City:

Trip Planner

Search our weather history database for the weather conditions in past years. The results will help you decide how hot, cold, wet, or windy it might be!

Date:

Astronomy

Oct. 21, 2013 Rise Set
Actual Time 7:58 AM CDT 6:29 PM CDT
Civil Twilight 7:26 AM CDT 7:00 PM CDT
Nautical Twilight 6:50 AM CDT 7:37 PM CDT
Astronomical Twilight 6:14 AM CDT 8:12 PM CDT
Moon 8:12 PM CDT (10/21) 10:44 AM CDT (10/21)
Length of Visible Light 11h 34m
Length of Day
10h 31m
Waning Gibbous, 92% of the Moon is Illuminated
Oct 21
Waning Gibbous
Oct 26
Last Quarter
Nov 3
New
Nov 9
First Quarter
Nov 17
Full

Hourly Weather History & Observations

Time (CDT) Temp. Windchill Dew Point Humidity Pressure Visibility Wind Dir Wind Speed Gust Speed Precip Events Conditions
12:31 AM 32.0 °F 25.6 °F 23.0 °F 69% 29.96 in 10.0 mi North 6.9 mph - N/A   Overcast
12:44 AM 32.0 °F 22.5 °F 21.2 °F 64% 29.96 in 10.0 mi North 12.7 mph - N/A   Overcast
12:58 AM 31.5 °F 21.4 °F 20.5 °F 64% 30.02 in 10.0 mi North 13.8 mph - 0.00 in   Overcast
1:58 AM 30.6 °F 22.4 °F 19.0 °F 62% 30.02 in 10.0 mi North 9.2 mph - N/A   Overcast
2:58 AM 29.8 °F 20.9 °F 19.4 °F 65% 30.02 in 10.0 mi NNW 10.4 mph - N/A   Overcast
3:58 AM 29.5 °F 20.4 °F 18.5 °F 64% 30.02 in 10.0 mi North 10.4 mph - N/A   Overcast
4:58 AM 27.0 °F 18.0 °F 18.5 °F 70% 30.02 in 10.0 mi NW 9.2 mph - N/A   Scattered Clouds
5:58 AM 26.1 °F 17.6 °F 18.0 °F 71% 30.02 in 10.0 mi NW 8.1 mph - N/A   Clear
6:58 AM 26.2 °F 16.4 °F 17.8 °F 70% 30.02 in 10.0 mi NW 10.4 mph 18.4 mph N/A   Clear
7:58 AM 27.3 °F 17.7 °F 18.5 °F 69% 30.02 in 10.0 mi NW 10.4 mph - N/A   Overcast
8:18 AM 28.4 °F 17.0 °F 19.4 °F 69% 29.97 in 10.0 mi NW 15.0 mph - N/A   Overcast
8:58 AM 28.2 °F 16.8 °F 18.9 °F 68% 30.02 in 10.0 mi NW 15.0 mph 23.0 mph N/A   Mostly Cloudy
9:58 AM 30.6 °F 19.8 °F 20.5 °F 66% 30.02 in 10.0 mi NW 15.0 mph 19.6 mph N/A   Overcast
10:58 AM 32.4 °F 23.0 °F 21.7 °F 65% 30.02 in 10.0 mi NW 12.7 mph - N/A   Overcast
11:58 AM 35.1 °F 26.9 °F 22.6 °F 61% 30.02 in 10.0 mi NNW 11.5 mph - N/A   Overcast
12:58 PM 36.7 °F 28.4 °F 24.1 °F 60% 30.01 in 10.0 mi North 12.7 mph - N/A   Overcast
1:58 PM 37.2 °F 29.1 °F 24.6 °F 60% 30.00 in 10.0 mi North 12.7 mph - N/A   Overcast
2:58 PM 37.2 °F 29.6 °F 24.6 °F 60% 30.00 in 10.0 mi NNW 11.5 mph - N/A   Overcast
3:58 PM 37.8 °F 33.3 °F 25.0 °F 60% 29.99 in 10.0 mi NNW 5.8 mph - N/A   Overcast
4:58 PM 36.9 °F 30.7 °F 25.2 °F 63% 30.01 in 10.0 mi North 8.1 mph - N/A   Overcast
5:58 PM 36.1 °F 30.6 °F 25.2 °F 64% 30.01 in 10.0 mi NNW 6.9 mph - N/A   Overcast
6:58 PM 35.1 °F 30.1 °F 26.2 °F 70% 30.02 in 10.0 mi North 5.8 mph - N/A   Overcast
7:58 PM 34.7 °F 29.6 °F 25.2 °F 68% 30.03 in 10.0 mi NNW 5.8 mph - N/A   Overcast
8:58 PM 34.3 °F 31.4 °F 26.2 °F 72% 30.02 in 10.0 mi North 3.5 mph - N/A   Overcast
9:58 PM 34.2 °F 29.0 °F 24.8 °F 69% 30.04 in 10.0 mi NNE 5.8 mph - N/A   Overcast
10:18 PM 32.0 °F 28.7 °F 24.8 °F 75% 29.99 in 10.0 mi NNW 3.5 mph - N/A   Overcast
10:58 PM 32.0 °F - 25.7 °F 78% 30.04 in 10.0 mi North 2.3 mph - N/A   Overcast
11:58 PM 31.8 °F 28.5 °F 26.6 °F 81% 30.04 in 10.0 mi NNW 3.5 mph - N/A   Overcast